This is the latest recevied weather packets stored in our database for station/object WA1OUI. If no packets are shown the sender has not sent any weather packets the latest 10 day(s).
| Time | Temp. | Humidity | Pressure | Rain* | Wind** | Luminosity | Snow |
|---|---|---|---|---|---|---|---|
| 1777634245 | 5.56° C | 85% | 1009.8 hPa | 0 mm | - | 20 W/m² | - |
| 1777633941 | 5.56° C | 86% | 1009.8 hPa | 0 mm | - | 20 W/m² | - |
| 1777633639 | 5° C | 87% | 1009.8 hPa | 0 mm | - | 19 W/m² | - |
| 1777633337 | 5° C | 88% | 1009.8 hPa | 0 mm | - | 18 W/m² | - |
| 1777633034 | 5° C | 89% | 1009.6 hPa | 0 mm | - | 23 W/m² | - |
| 1777632730 | 5° C | 91% | 1009.6 hPa | 0 mm | - | 17 W/m² | - |
| 1777632426 | 4.44° C | 91% | 1009.5 hPa | 0 mm | - | 16 W/m² | - |
| 1777632124 | 4.44° C | 91% | 1009.6 hPa | 0 mm | - | 15 W/m² | - |
| 1777631821 | 4.44° C | 91% | 1009.3 hPa | 0 mm | - | 18 W/m² | - |
| 1777631519 | 4.44° C | 91% | 1009.3 hPa | 0 mm | - | 17 W/m² | - |
| 1777631215 | 3.89° C | 91% | 1009.1 hPa | 0 mm | - | 12 W/m² | - |
| 1777630913 | 3.89° C | 92% | 1009.2 hPa | 0 mm | - | 13 W/m² | - |
| 1777630614 | 3.89° C | 91% | 1009.3 hPa | 0 mm | - | 11 W/m² | - |
| 1777630311 | 3.89° C | 91% | 1009.1 hPa | 0 mm | - | 9 W/m² | - |
| 1777630009 | 3.89° C | 91% | 1009.2 hPa | 0 mm | - | 6 W/m² | - |
| 1777629706 | 3.89° C | 91% | 1009.2 hPa | 0 mm | - | 5 W/m² | - |
| 1777629403 | 4.44° C | 90% | 1008.9 hPa | 0 mm | - | 3 W/m² | - |
| 1777629098 | 4.44° C | 90% | 1008.9 hPa | 0 mm | - | 2 W/m² | - |
| 1777628795 | 4.44° C | 90% | 1009 hPa | 0 mm | - | 1 W/m² | - |
| 1777628492 | 4.44° C | 90% | 1009.1 hPa | 0 mm | - | 1 W/m² | - |
| 1777628188 | 4.44° C | 90% | 1009.1 hPa | 0 mm | - | 0 W/m² | - |
| 1777627884 | 4.44° C | 89% | 1008.8 hPa | 0 mm | - | 0 W/m² | - |
| 1777627582 | 4.44° C | 89% | 1008.9 hPa | 0 mm | - | 0 W/m² | - |
| 1777627277 | 4.44° C | 89% | 1008.9 hPa | 0 mm | - | 0 W/m² | - |
| 1777626975 | 5° C | 90% | 1008.9 hPa | 0 mm | - | 0 W/m² | - |
* Rain latest hour (hover to see other rain measurements)
** Current wind speed in m/s (hover to see current wind gust speed)